TIME,DELAY(SENSOR),PRES,OXYGEN,RAWTEMP,T(OPTODE),TCPHASE,FLUOR,BETA(BETA700),BETA(BETA412),BETA(BETA440),CDOM,C(CSC),ED(ED412.40),ED(ED444.00),ED(ED489.70),ED(ED554.30),LU(LU411.80),LU(LU443.40),LU(LU489.60),LU(LU554.10),COMP,TILTX,TILTY,CHECK
1355196076,5808,876.3200073242188000,46.1395606994628900,667.5717163085938000,4.3783798217773440,54.1822395324707000,52,99,90,80,80,15182,2147758043,2147419657,2148012096,2147872164,2147642953,2147061001,2148264868,2147193526,2365,4,13,41853
1355199672,5810,966.7899780273438000,48.8630714416503900,673.6179199218750000,4.1786098480224610,53.8713989257812500,53,98,86,79,81,15183,2147755620,2147418825,2148011611,2147875510,2147642971,2147066066,2148263213,2147194944,189,4,13,6930
1355203272,5809,970.2000122070312000,49.4234580993652340,674.4948730468750000,4.1495990753173830,53.8078193664550800,52,100,88,80,80,15181,2147757549,2147421906,2148010212,2147873600,2147647552,2147055634,2148262070,2147196918,3097,4,13,44798
1355206872,5809,979.6199951171875000,49.2420501708984400,674.5535278320312000,4.1476588249206540,53.8332710266113300,53,99,87,80,81,15180,2147753097,2147421504,2148009453,2147873856,2147646253,2147059958,2148265508,2147201508,3363,4,13,60637
1355210472,5804,978.4899902343750000,48.8508911132812500,675.4614868164062000,4.1176152229309080,53.8960189819335940,53,99,88,79,81,15180,2147754450,2147419355,2148011136,2147873938,2147645970,2147055360,2148265709,2147196169,250,4,13,5527
1355214072,5809,986.7100219726562000,48.8938217163085940,675.2097167968750000,4.1259460449218750,53.8891792297363300,52,98,85,80,82,15182,2147756681,2147418550,2148010340,2147871204,2147643392,2147060672,2148262592,2147198134,284,4,13,12599
1355217672,5810,975.7700195312500000,48.7744712829589840,675.5894165039062000,4.1133799552917480,53.9100799560546900,53,100,88,78,81,15178,2147758674,2147419986,2148012452,2147874633,2147647396,2147056996,2148261805,2147192548,562,4,13,48530
1355221272,5806,986.2999877929688000,48.7845306396484400,676.0244140625000000,4.0989818572998050,53.9164314270019500,52,98,86,80,81,15180,2147755565,2147420041,2148012242,2147870848,2147645458,2147059200,2148262555,2147196196,3395,4,13,37426
1355224872,5811,983.6300048828125000,48.8395309448242200,676.1682128906250000,4.0942211151123050,53.9081916809082000,53,99,84,80,80,15177,2147758098,2147420269,2148008027,2147873097,2147645851,2147056265,2148265481,2147194752,391,4,13,65443
1355228472,5809,986.7000122070312000,47.8290481567382800,676.9002075195312000,4.0699858665466310,54.0618400573730500,53,98,87,80,80,15177,2147759716,2147423725,2148014555,2147873499,2147641819,2147055762,2148262326,2147196900,126,4,13,24516
1355232072,5808,991.0200195312500000,48.8047294616699200,676.2891235351562000,4.0902209281921390,53.9144706726074200,52,98,88,79,81,15177,2147757696,2147419858,2148009307,2147873371,2147645586,2147065819,2148265088,2147196836,3342,4,13,42577
1355235672,5809,997.7700195312500000,48.4877395629882800,675.0494995117188000,4.1312479972839355,53.9409599304199200,52,97,84,79,81,15178,2147755163,2147422747,2148007716,2147875949,2147643702,2147063789,2148259986,2147195821,9,4,13,51624
1355239272,5810,994.3400268554688000,48.3174095153808600,675.0524291992188000,4.1311531066894530,53.9692001342773440,53,98,84,79,81,15171,2147755337,2147423945,2148008969,2147872576,2147641929,2147054537,2148261165,2147198912,8,4,13,50100
1355242872,5812,994.9899902343750000,48.2424011230468750,674.9354248046875000,4.1350231170654300,53.9746894836425800,52,98,87,78,80,15173,2147755931,2147421138,2148012041,2147873782,2147647177,2147057325,2148261403,2147201600,3521,4,13,6867
1355246472,5810,991.4400024414062000,48.1164016723632800,675.0615234375000000,4.1308498382568360,53.9948081970214840,52,100,87,79,80,15174,2147756745,2147420489,2148010285,2147873051,2147643785,2147058733,2148261952,2147195657,3467,4,13,43125
1355250072,5810,998.8200073242188000,48.2481803894043000,674.8248901367188000,4.1386809349060060,53.9702110290527340,52,102,86,78,81,15172,2147753334,2147421522,2148009261,2147870820,2147644534,2147054189,2148259803,2147198299,3581,4,13,44982
1355253672,5806,998.6599731445312000,48.0040206909179700,674.7305297851562000,4.1418018341064450,54.0086288452148440,53,98,85,79,82,15172,2147755931,2147420269,2148012672,2147869238,2147644699,2147060790,2148259282,2147197476,128,4,13,59629
1355257272,5809,996.7500000000000000,47.9753608703613300,675.1276245117188000,4.1286659240722660,54.0129089355468750,53,99,87,77,80,15171,2147756205,2147420617,2148009508,2147872118,2147642523,2147057453,2148264228,2147201499,218,4,13,57437
1355260872,5809,987.5900268554688000,48.2435913085937500,676.5319213867188000,4.0821800231933590,53.9925193786621100,53,99,87,80,81,15173,2147758701,2147418715,2148013065,2147873664,2147644480,2147054720,2148265462,2147196205,57,5,13,16771
1355264472,5812,993.0000000000000000,48.4832801818847660,677.1218261718750000,4.0626511573791500,53.9721107482910160,53,99,88,78,81,15170,2147758966,2147423387,2148011785,2147870363,2147642944,2147059858,2148259254,2147192868,215,4,13,13820
1355268072,5809,1001.0499877929688000,49.3399085998535160,677.5974121093750000,4.0468978881835940,53.8563117980957000,52,99,85,79,81,15170,2147756973,2147424758,2148008941,2147873161,2147644717,2147058825,2148265270,2147196982,3432,4,13,21870
1355271672,5805,995.0499877929688000,48.6036300659179700,676.5123901367188000,4.0828270912170410,53.9439086914062500,52,99,87,79,81,15170,2147756388,2147421330,2148011958,2147874139,2147646555,2147057371,2148262418,2147195355,169,4,13,47433
1355275272,5808,997.7199707031250000,48.5330200195312500,676.3400268554688000,4.0885348320007320,53.9525794982910160,53,97,87,79,81,15169,2147759305,2147422738,2148009161,2147873097,2147645193,2147058834,2148256832,2147195062,80,5,13,53002
1355278872,5810,1003.8699951171875000,48.6978797912597660,675.8428955078125000,4.1049900054931640,53.9220695495605500,54,99,89,78,82,15169,2147755739,2147420745,2148010761,2147875446,2147643355,2147060251,2148263350,2147195044,3561,4,14,29865
1355282472,5808,1000.3699951171875000,47.6489105224609400,675.6478271484375000,4.1114478111267090,54.0706901550293000,52,97,87,79,80,15167,2147757906,2147421558,2148008310,2147872813,2147639460,2147057462,2148262784,2147199332,3589,4,13,45520
1355286072,5811,998.8099975585938000,48.5187797546386700,676.6478271484375000,4.0783457756042480,53.9596595764160160,53,100,87,79,81,15166,2147758034,2147423670,2148010596,2147872329,2147642880,2147054985,2148261156,2147198400,358,4,13,39560
1355289672,5809,992.0900268554688000,48.3417091369628900,677.1968994140625000,4.0601620674133300,53.9889411926269500,52,100,89,78,82,15168,2147757915,2147422016,2148008347,2147872192,2147646070,2147057526,2148257901,2147201581,3431,4,13,2825
1355293272,5810,997.9299926757812000,48.3731918334960940,677.2371826171875000,4.0588259696960450,53.9889106750488300,52,99,86,79,82,15164,2147757202,2147422226,2148010432,2147874304,2147644717,2147052626,2148263314,2147200018,17,4,13,23766
1355296872,5810,990.4799804687500000,48.3220100402832000,677.8756713867188000,4.0376801490783690,53.9994087219238300,52,98,87,80,81,15166,2147755913,2147420891,2148010130,2147872283,2147641261,2147053714,2148263817,2147198153,319,4,13,30299
1355300472,5809,998.3400268554688000,48.3446998596191400,677.1090698242188000,4.0630698204040530,53.9882698059082000,52,99,87,79,81,15163,2147754925,2147422080,2148011355,2147872027,2147645202,2147055012,2148264576,2147195712,3500,4,13,64037
1355304072,5811,992.8699951171875000,48.4038696289062500,677.5515136718750000,4.0484199523925780,53.9878997802734400,53,101,86,80,81,15161,2147754541,2147419181,2148008749,2147871424,2147642532,2147052196,2148266276,2147197138,59,4,13,9121
1355307672,5810,994.2299804687500000,48.5755004882812500,678.3864746093750000,4.0207581520080570,53.9697990417480500,52,99,89,80,81,15162,2147756260,2147424969,2148007222,2147871597,2147645293,2147054290,2148263104,2147197961,27,4,13,64464
1355311272,5808,993.3200073242188000,48.6359901428222660,678.3964233398438000,4.0204319953918460,53.9622917175293000,53,99,88,79,80,15165,2147754541,2147421147,2148007579,2147872941,2147646345,2147054994,2148262381,2147198052,40,4,13,58095
1355314872,5808,999.2299804687500000,49.1736106872558600,678.5941162109375000,4.0138840675354000,53.8941993713378900,52,98,86,80,81,15167,2147756297,2147419620,2148012196,2147870729,2147645613,2147058267,2148261705,2147195693,3453,4,13,4811
1355318472,5811,1006.9899902343750000,48.7211990356445300,676.9185180664062000,4.0693798065185550,53.9338111877441400,52,97,87,79,81,15160,2147755200,2147419940,2148012269,2147872228,2147645275,2147052105,2148262573,2147195666,3314,4,13,8675
1355322072,5808,1005.0300292968750000,48.1384582519531250,676.0048828125000000,4.0996270179748535,54.0006408691406250,52,109,85,78,81,15153,2147756653,2147420150,2148013046,2147873216,2147640768,2147052681,2148258368,2147199168,3526,4,13,24059
1355325672,5810,1004.0399780273438000,47.5765495300293000,676.0684204101562000,4.0975279808044430,54.0814704895019500,52,100,88,77,80,15151,2147757330,2147419794,2148010569,2147873170,2147643556,2147061467,2148262765,2147200384,2,4,13,29055
1355329272,5802,999.5300292968750000,47.5748710632324200,677.0432128906250000,4.0652499198913570,54.0983200073242200,53,98,88,80,81,15093,2147754532,2147420672,2148010870,2147872978,2147644781,2147058002,2148261513,2147199707,3592,4,13,54714
1355332872,5805,1008.9799804687500000,48.4944000244140600,675.8234252929688000,4.1056351661682130,53.9497413635253900,52,100,88,78,80,15093,2147752054,2147422052,2148012278,2147872512,2147645193,2147054372,2148264804,2147194560,196,4,13,35639
1355336472,5810,1011.4400024414062000,48.4170608520507800,675.8082275390625000,4.1061401367187500,53.9596900939941400,53,100,89,78,81,15095,2147758134,2147421284,2148011757,2147870656,2147639734,2147055899,2148265252,2147196763,3263,4,13,41082
1355340072,5806,1004.0200195312500000,48.1920890808105500,675.5275878906250000,4.1154251098632810,53.9934501647949200,53,100,87,80,81,15092,2147757494,2147420763,2148011648,2147874176,2147644534,2147062720,2148261741,2147197184,3436,4,13,55127
1355341555,5808,1003.2299804687500000,47.9903907775878900,675.8673706054688000,4.1041808128356930,54.0251808166503900,52,99,90,80,80,15157,2147756580,2147422089,2148010706,2147872841,2147645275,2147056429,2148265737,2147198016,3456,4,13,6350
